GW4471 Weather Reports


time (UTC)temp
C
wind
direction
speed
KPH
gust
KPH
rain 1hr
cm
rain 24hr
cm
rain mn
cm
humidity
%
barometer
mb
20260502112817 16 275 4.8 9.7 0.00 0.00 0.00 64 1016.2
20260502111816 16 275 8.0 12.9 0.00 0.00 0.00 64 1016.2
20260502110816 16 297 4.8 8.0 0.00 0.00 0.00 64 1016.1
20260502105816 16 230 1.6 3.2 0.00 0.00 0.00 65 1016.1
20260502104816 16 275 8.0 12.9 0.00 0.00 0.00 66 1016.2
20260502103816 15 275 3.2 8.0 0.00 0.00 0.00 68 1016.2
20260502101816 14 230 3.2 4.8 0.00 0.00 0.00 70 1016.6
20260502100816 13 252 3.2 9.7 0.00 0.00 0.00 71 1016.6
20260502090817 14 140 4.8 8.0 0.00 0.00 0.00 70 1016.6
20260502070816 11 185 6.4 11.3 0.00 0.00 0.00 83 1016.6
20260502065816 10 162 3.2 8.0 0.00 0.00 0.00 83 1016.5
20260502064816 10 252 3.2 6.4 0.00 0.00 0.00 83 1016.5
20260502063815 10 252 6.4 11.3 0.00 0.00 0.00 84 1016.4
20260502062816 10 297 1.6 4.8 0.00 0.00 0.00 84 1016.4
20260502061816 10 252 4.8 9.7 0.00 0.00 0.00 84 1016.4
20260502060816 10 207 1.6 3.2 0.00 0.00 0.00 84 1016.5
20260502055815 10 0.0 1.6 0.00 0.00 0.00 84 1016.4
20260502054815 10 207 3.2 6.4 0.00 0.00 0.00 85 1016.4
20260502053816 10 252 3.2 9.7 0.00 0.00 0.00 85 1016.5
20260502051817 10 0.0 0.0 0.00 0.00 0.00 85 1016.5
20260502050817 10 252 1.6 3.2 0.00 0.00 0.00 85 1016.6
20260502044818 10 230 1.6 4.8 0.00 0.00 0.00 86 1016.7
20260502043818 10 0.0 1.6 0.00 0.00 0.00 86 1016.6
20260502042817 10 297 3.2 6.4 0.00 0.00 0.00 86 1016.7
20260502041818 10 252 1.6 4.8 0.00 0.00 0.00 86 1016.7
20260502040817 10 0.0 0.0 0.00 0.00 0.00 87 1016.7
20260502035817 10 297 4.8 6.4 0.00 0.00 0.00 87 1016.8
20260502033818 10 252 1.6 3.2 0.00 0.00 0.00 87 1016.9
20260502032818 10 0.0 0.0 0.00 0.00 0.00 87 1016.8
20260502031817 10 0.0 0.0 0.00 0.00 0.00 87 1016.9
20260502030818 10 0.0 0.0 0.00 0.00 0.00 86 1016.8
20260502024817 10 0.0 1.6 0.00 0.00 0.00 86 1016.9
20260502022818 10 275 1.6 6.4 0.00 0.00 0.00 85 1017.0
20260502021817 10 0.0 1.6 0.00 0.00 0.00 85 1017.1
20260502020818 10 297 1.6 4.8 0.00 0.00 0.00 85 1017.2
20260502015817 10 275 1.6 3.2 0.00 0.00 0.00 84 1017.2
20260502014817 10 297 3.2 8.0 0.00 0.00 0.00 84 1017.2
20260502013818 10 252 1.6 3.2 0.00 0.00 0.00 84 1017.3
20260502012817 10 95 1.6 3.2 0.00 0.00 0.00 84 1017.4
20260502011817 11 5 1.6 6.4 0.00 0.00 0.00 84 1017.6
20260502010817 11 230 3.2 11.3 0.00 0.00 0.00 85 1017.7
20260502004817 11 252 1.6 3.2 0.00 0.00 0.00 85 1017.8
20260502003818 11 275 3.2 4.8 0.00 0.00 0.00 85 1017.8
20260502002817 11 0.0 1.6 0.00 0.00 0.00 84 1017.9
20260502001817 11 297 3.2 3.2 0.00 0.00 0.00 85 1017.9
20260502000817 11 252 1.6 1.6 0.00 0.00 0.00 85 1018.0
20260501233817 12 252 6.4 11.3 0.00 0.00 0.00 85 1018.1
20260501230817 12 162 1.6 4.8 0.00 0.00 0.00 84 1018.0
20260501225817 12 162 1.6 3.2 0.00 0.00 0.00 84 1017.9
20260501224817 12 230 1.6 3.2 0.00 0.00 0.00 83 1017.8
20260501223817 12 0.0 3.2 0.00 0.00 0.00 83 1017.9
20260501222817 12 230 1.6 3.2 0.00 0.00 0.00 83 1018.0
20260501220818 12 230 1.6 4.8 0.00 0.00 0.00 83 1017.9
20260501215817 12 275 1.6 6.4 0.00 0.00 0.00 83 1017.9
20260501214817 12 207 4.8 11.3 0.00 0.00 0.00 82 1018.0
20260501213817 12 207 6.4 16.1 0.00 0.00 0.00 82 1018.0
20260501211816 12 275 6.4 8.0 0.00 0.00 0.00 80 1017.8
20260501210816 13 252 8.0 16.1 0.00 0.00 0.00 79 1017.8
20260501205817 13 297 4.8 11.3 0.00 0.00 0.00 78 1017.9
20260501203817 13 252 4.8 6.4 0.00 0.00 0.00 76 1017.6
20260501201817 13 252 4.8 12.9 0.00 0.00 0.00 74 1017.8
20260501195816 14 342 3.2 8.0 0.00 0.00 0.00 72 1017.9
20260501194816 14 207 3.2 6.4 0.00 0.00 0.00 71 1017.9
20260501192816 15 275 4.8 9.7 0.00 0.00 0.00 68 1017.8
20260501190817 15 297 3.2 6.4 0.00 0.00 0.00 67 1017.7
20260501185817 16 252 3.2 4.8 0.00 0.00 0.00 66 1017.7
20260501184816 16 252 4.8 8.0 0.00 0.00 0.00 65 1017.6
20260501183816 17 185 3.2 8.0 0.00 0.00 0.00 65 1017.4
20260501182816 17 252 3.2 9.7 0.00 0.00 0.00 63 1017.4
20260501181817 17 252 6.4 12.9 0.00 0.00 0.00 62 1017.4
20260501180816 18 320 3.2 9.7 0.00 0.00 0.00 60 1017.4
20260501175816 18 297 4.8 9.7 0.00 0.00 0.00 60 1017.0
20260501174816 19 230 3.2 6.4 0.00 0.00 0.00 59 1017.1
20260501173816 20 297 4.8 8.0 0.00 0.00 0.00 58 1017.2
20260501171817 20 252 4.8 9.7 0.00 0.00 0.00 58 1017.1
20260501170816 20 320 1.6 3.2 0.00 0.00 0.00 57 1017.2
20260501165817 21 320 4.8 8.0 0.00 0.00 0.00 56 1017.2
20260501164816 21 320 3.2 6.4 0.00 0.00 0.00 54 1017.3
20260501163817 21 297 6.4 9.7 0.00 0.00 0.00 53 1017.3
20260501161816 22 252 1.6 3.2 0.00 0.00 0.00 49 1017.2